Weather History for Mackall AAF, NC

Change the Weather History Date:

Saturday, November 24, 2012

  Actual Average Record
Temperature  
Mean Temperature 41 °F -  
Max Temperature 52 °F 63 °F 77 °F (1998)
Min Temperature 30 °F 38 °F 19 °F (2013)
Degree Days  
Heating Degree Days 24    
Moisture  
Dew Point 26 °F    
Average Humidity 54    
Maximum Humidity 85    
Minimum Humidity 29    
Precipitation  
Precipitation 0.00 in - - ()
Sea Level Pressure  
Sea Level Pressure 30.03 in    
Wind  
Wind Speed 8 mph (NW)    
Max Wind Speed 14 mph    
Max Gust Speed 25 mph    
Visibility 10 miles    
Events      
Averages and records for this station are not official NWS values.
T = Trace of Precipitation, MM = Missing Value Source: NWS Daily Summary

Daily Weather History Graph

Daily Weather History Graph

Search for Another Location

Airport:

Trip Planner

Search our weather history database for the weather conditions in past years. The results will help you decide how hot, cold, wet, or windy it might be!

Date:

Astronomy

Nov. 24, 2012 Rise Set
Actual Time 7:01 AM EST 5:07 PM EST
Civil Twilight 6:34 AM EST 5:35 PM EST
Nautical Twilight 6:03 AM EST 6:06 PM EST
Astronomical Twilight 5:32 AM EST 6:36 PM EST
Moon 2:45 PM EST (11/24) 3:23 AM EST (11/24)
Length of Visible Light 11h 00m
Length of Day
10h 06m
Waxing Gibbous, 87% of the Moon is Illuminated
Nov 24
Waxing Gibbous
Nov 28
Full
Dec 6
Last Quarter
Dec 13
New
Dec 20
First Quarter

Hourly Weather History & Observations

Time (EST) Temp. Windchill Dew Point Humidity Pressure Visibility Wind Dir Wind Speed Gust Speed Precip Events Conditions
12:55 AM 51.3 °F - 37.6 °F 60% 29.92 in 10.0 mi NW 10.4 mph - N/A   Partly Cloudy
1:55 AM 51.3 °F - 30.0 °F 44% 29.93 in 10.0 mi NNW 11.5 mph 25.3 mph N/A   Clear
2:55 AM 46.6 °F - 30.4 °F 53% 29.94 in 10.0 mi NW 5.8 mph - N/A   Clear
3:55 AM 43.9 °F 39.9 °F 30.6 °F 59% 29.95 in 10.0 mi NW 6.9 mph - N/A   Clear
4:55 AM 39.0 °F 35.7 °F 29.7 °F 69% 29.96 in 10.0 mi WNW 4.6 mph - N/A   Clear
5:55 AM 38.8 °F 35.4 °F 29.5 °F 69% 29.99 in 10.0 mi Variable 4.6 mph - N/A   Clear
6:55 AM 33.4 °F 30.4 °F 29.3 °F 85% 30.01 in 10.0 mi NNW 3.5 mph - N/A   Clear
7:55 AM 38.8 °F 35.4 °F 31.5 °F 75% 30.03 in 10.0 mi NW 4.6 mph - N/A   Clear
8:55 AM 44.8 °F 41.0 °F 29.5 °F 55% 30.04 in 10.0 mi NNW 6.9 mph - N/A   Clear
9:55 AM 47.1 °F - 24.3 °F 41% 30.06 in 10.0 mi North 13.8 mph 24.2 mph N/A   Clear
10:55 AM 48.9 °F - 22.6 °F 36% 30.05 in 10.0 mi NW 11.5 mph - N/A   Clear
11:55 AM 50.4 °F - 22.6 °F 34% 30.03 in 10.0 mi NW 12.7 mph 17.3 mph N/A   Clear
12:55 PM 51.8 °F - 21.7 °F 31% 30.01 in 10.0 mi NW 9.2 mph - N/A   Clear
1:55 PM 52.3 °F - 20.7 °F 29% 30.00 in 10.0 mi WNW 11.5 mph 19.6 mph N/A   Clear
2:55 PM 52.9 °F - 21.7 °F 30% 30.00 in 10.0 mi NNW 10.4 mph 18.4 mph N/A   Clear
3:55 PM 52.0 °F - 21.6 °F 30% 30.01 in 10.0 mi NNW 9.2 mph - N/A   Clear
4:55 PM 48.6 °F - 22.1 °F 35% 30.04 in 10.0 mi WNW 5.8 mph - N/A   Clear
5:55 PM 41.9 °F 38.2 °F 24.8 °F 51% 30.06 in 10.0 mi Variable 5.8 mph - N/A   Clear
6:55 PM 33.8 °F 30.8 °F 25.2 °F 71% 30.09 in 10.0 mi NW 3.5 mph - N/A   Clear
7:55 PM 31.5 °F - 25.5 °F 79% 30.11 in 10.0 mi WNW 2.3 mph - N/A   Clear
8:55 PM 31.1 °F 27.7 °F 25.3 °F 79% 30.12 in 10.0 mi NNW 3.5 mph - N/A   Clear
9:55 PM 33.3 °F 27.9 °F 21.7 °F 63% 30.14 in 10.0 mi North 5.8 mph - N/A   Clear
10:55 PM 30.6 °F 22.4 °F 21.4 °F 69% 30.16 in 10.0 mi NNE 9.2 mph - N/A   Clear
11:55 PM 32.9 °F 26.7 °F 19.9 °F 59% 30.16 in 10.0 mi NNE 6.9 mph - N/A   Clear